Powrót do katalogu

CZ-3C R/B

AktywnyHEO
NORAD 65487·ROCKET BODY·🇨🇳 China

Wystrzelony Sep 5, 2025 z Xichang Satellite Launch Center

Loading…

Następne Przeloty (najbliższe 24 godziny)

TLE

ŚwieżeSource: Space-Track

Epoka: Sep 14, 2026, 05:58 UTC

1 65487U 25196B   26257.24911993  .00012922  00000-0  94949-3 0  9997
2 65487  28.0460 211.5158 6939089  45.6024 353.4455  2.75211558 10219

Śledź CZ-3C R/B w czasie rzeczywistym z AllMySat

Download on the App Store